Temp
7 7 7 7 6 6 5 6 6 6 6 6 6 7 6 6 6 6 6 6 6 5 5 4 4 4 4 4 3 3 4 3 3 3 4 4 4 4 4 4 4 4 4
7 7 7 7 7 7 6 5 5 6 6 6 6 6 5 5 6 6 6 6 6 5 4 4 4 3 3 3 3 2 2 3 3 3 3 3 4 4 3 3 3 3 3
8 8 7 6 6 6 6 5 6 5 6 6 6 6 6 5 6 6 6 5 5 5 4 4 3 3 3 2 2 2 0 2 2 3 3 3 3 3 3 3 3 3 3
7 6 5 5 5 5 6 5 5 5 5 5 5 6 6 6 5 5 5 5 5 5 4 4 3 3 2 2 2 1 2 2 2 2 2 2 2 2 2 2 2 2 2
6 6 5 5 3 2 3 5 4 5 4 4 5 5 5 5 5 5 5 5 4 5 4 4 3 2 2 2 1 1 1 1 1 2 2 2 2 2 2 2 2 2 1
4 4 4 4 4 3 2 3 3 3 4 3 4 5 5 5 5 5 5 5 5 5 4 4 3 2 2 1 1 1 1 2 1 1 2 2 2 1 1 1 1 2 1
3 2 2 2 3 4 3 2 2 2 2 2 4 4 5 4 5 5 5 5 5 5 4 3 2 2 2 1 1 1 1 1 1 1 1 1 1 1 1 1 1 1 1
3 3 2 1 1 2 3 3 2 1 1 2 3 4 4 4 4 4 5 4 5 5 4 2 2 1 2 0 1 1 1 1 1 1 1 1 0 0 0 0 -0 1 0
1 1 1 1 2 2 1 1 2 1 1 2 3 3 4 3 4 4 4 4 5 4 2 2 1 1 1 1 1 1 0 1 1 1 0 0 0 0 -0 -1 -1 -1 -1
1 0 -0 -0 -0 -0 1 0 0 1 1 1 3 3 3 3 4 4 4 4 4 2 3 1 1 1 1 1 1 0 0 0 0 0 -0 -0 -0 -0 -1 -1 -2 -2 -3
-0 -0 -0 -0 -1 -1 -1 1 1 -0 1 2 3 2 2 3 4 4 4 4 3 2 2 1 -0 0 0 0 0 0 0 0 -0 -0 -1 -0 -1 -1 -2 -2 -3 -3 -3
1 1 1 0 -0 -1 -1 -2 -1 1 -1 2 3 2 3 3 3 4 4 2 1 1 1 1 0 0 -0 -0 -0 -0 -0 -0 -1 -1 -1 -1 -2 -2 -2 -3 -3 -3 -4
-1 -1 -0 0 0 -0 -1 -2 -2 1 -0 2 2 2 2 3 3 3 2 2 2 2 1 0 0 -0 -0 -0 -1 -0 -1 -1 -1 -1 -2 -2 -2 -3 -3 -3 -4 -4 -5
-1 -1 -1 -2 -2 -2 -2 -2 -2 1 2 1 2 2 2 3 3 3 2 1 1 -0 0 0 -0 -0 -1 -1 -1 -1 -1 -1 -1 -2 -2 -3 -3 -3 -3 -4 -4 -5 -6
0 -1 -1 -2 -2 -2 -2 -2 -1 1 2 1 2 1 1 1 2 2 1 0 0 0 -0 -1 -1 -1 -1 -1 -1 -1 -2 -2 -2 -3 -3 -3 -4 -4 -4 -5 -5 -6 -7
1 -1 -2 -2 -2 -2 -2 -2 -0 1 1 1 1 1 0 0 0 -0 1 -1 -0 -1 -1 -1 -1 -1 -1 -1 -2 -2 -2 -2 -3 -3 -4 -4 -4 -5 -5 -6 -7 -8 -9
0 -1 -1 -1 -2 -2 -1 -1 -0 0 1 1 1 1 0 0 -1 0 -0 -1 -1 -1 -1 -2 -2 -2 -2 -2 -2 -2 -3 -3 -3 -4 -4 -4 -5 -5 -6 -7 -8 -9 -10
1 1 -0 -1 -1 -1 -1 -1 -0 -0 0 0 1 0 -0 0 0 -0 -1 -1 -2 -2 -2 -2 -2 -2 -2 -3 -3 -3 -3 -4 -4 -5 -5 -5 -5 -6 -7 -8 -9 -9 -11
1 0 0 -0 -1 -1 -1 -1 -1 -0 0 0 -0 -0 0 -0 -1 -2 -2 -2 -2 -2 -2 -2 -3 -3 -3 -3 -3 -4 -4 -4 -5 -5 -6 -6 -7 -8 -8 -9 -10 -10 -11
0 0 -1 -1 -1 -0 0 0 -0 0 -0 -0 0 -0 -2 -2 -3 -3 -2 -2 -2 -2 -3 -3 -3 -3 -3 -4 -4 -4 -5 -5 -5 -6 -7 -8 -8 -9 -10 -10 -10 -11 -12
-1 -0 -0 0 -0 0 -0 0 -0 -1 -1 -1 -1 -2 -3 -3 -3 -3 -3 -3 -3 -3 -3 -3 -3 -3 -4 -4 -5 -5 -5 -5 -6 -6 -7 -8 -9 -10 -11 -11 -12 -12 -12
-1 -0 -0 -1 -1 -2 -2 -2 -1 -1 -2 -2 -2 -3 -3 -3 -3 -3 -3 -3 -3 -3 -3 -4 -4 -4 -5 -5 -5 -6 -6 -6 -6 -7 -8 -9 -10 -11 -12 -12 -13 -13 -13
-2 -2 -1 -1 -1 -2 -2 -3 -3 -3 -2 -3 -3 -3 -3 -3 -3 -3 -3 -3 -3 -4 -4 -4 -5 -5 -6 -6 -6 -6 -6 -7 -8 -9 -9 -10 -11 -11 -12 -13 -13 -13 -13
-1 -1 -2 -2 -2 -2 -2 -3 -3 -3 -3 -3 -3 -3 -3 -3 -3 -3 -3 -4 -4 -4 -5 -5 -5 -6 -6 -6 -6 -7 -7 -8 -9 -9 -10 -11 -11 -12 -13 -13 -13 -13 -14
-1 -1 -2 -2 -3 -2 -3 -3 -3 -3 -3 -3 -4 -3 -3 -3 -3 -4 -4 -4 -5 -5 -5 -6 -6 -6 -6 -6 -7 -7 -8 -9 -9 -10 -11 -11 -12 -13 -13 -13 -13 -14 -14
-1 -2 -2 -2 -2 -2 -2 -2 -3 -4 -4 -3 -3 -3 -3 -4 -4 -4 -5 -5 -5 -6 -6 -6 -6 -6 -7 -7 -7 -8 -9 -10 -10 -11 -12 -12 -13 -13 -13 -13 -13 -14 -14
Height
3063 3064 3067 3071 3075 3079 3082 3085 3088 3091 3096 3097 3100 3103 3108 3105 3108 3111 3113 3114 3117 3117 3119 3118 3118 3119 3119 3119 3119 3119 3121 3118 3117 3116 3114 3113 3111 3109 3106 3103 3101 3099 3097
3053 3055 3057 3061 3064 3068 3073 3075 3078 3081 3087 3091 3094 3096 3098 3099 3103 3106 3107 3108 3111 3113 3113 3113 3113 3115 3114 3114 3113 3114 3114 3114 3113 3111 3109 3107 3107 3104 3101 3098 3096 3093 3090
3043 3046 3048 3051 3055 3058 3063 3067 3071 3074 3076 3084 3086 3087 3091 3092 3098 3100 3102 3103 3105 3108 3108 3108 3109 3110 3110 3109 3108 3107 3107 3110 3109 3107 3105 3102 3099 3097 3095 3092 3090 3086 3083
3035 3036 3038 3042 3045 3048 3054 3058 3062 3068 3068 3072 3076 3081 3083 3088 3093 3095 3097 3098 3099 3101 3102 3103 3104 3104 3105 3104 3103 3102 3103 3103 3103 3102 3099 3096 3093 3090 3089 3086 3082 3079 3075
3029 3030 3032 3034 3036 3040 3043 3047 3051 3055 3062 3062 3065 3071 3077 3081 3087 3089 3091 3092 3094 3095 3096 3097 3097 3099 3100 3099 3099 3097 3098 3098 3097 3096 3093 3090 3087 3083 3079 3078 3076 3071 3066
3025 3024 3025 3026 3027 3031 3034 3035 3040 3044 3050 3053 3053 3060 3068 3075 3080 3083 3085 3087 3088 3089 3090 3090 3092 3093 3094 3094 3093 3092 3092 3092 3091 3089 3086 3083 3079 3074 3070 3066 3064 3060 3060
3019 3019 3018 3018 3020 3022 3025 3027 3030 3034 3040 3043 3044 3051 3060 3068 3073 3077 3079 3080 3082 3083 3083 3085 3086 3087 3088 3087 3088 3088 3087 3087 3085 3082 3079 3076 3072 3067 3062 3056 3052 3047 3047
3015 3014 3013 3012 3011 3012 3013 3019 3022 3025 3029 3031 3036 3041 3049 3060 3066 3070 3073 3075 3075 3076 3077 3079 3081 3082 3082 3082 3083 3083 3082 3081 3078 3075 3072 3068 3063 3059 3054 3048 3041 3037 3034
3010 3009 3007 3006 3006 3005 3005 3008 3013 3018 3021 3024 3027 3031 3040 3051 3058 3063 3065 3067 3069 3069 3072 3074 3076 3075 3078 3077 3077 3077 3076 3074 3071 3068 3064 3060 3056 3050 3045 3039 3033 3025 3017
3005 3002 3000 2999 3000 2999 3000 3000 3003 3009 3012 3017 3019 3025 3035 3044 3050 3054 3058 3061 3062 3065 3068 3069 3071 3070 3071 3072 3071 3071 3069 3066 3063 3060 3056 3051 3046 3041 3035 3029 3025 3019 3010
2996 2993 2990 2989 2987 2990 2991 2993 2998 3000 3004 3005 3011 3023 3031 3038 3042 3047 3051 3054 3057 3060 3063 3063 3065 3066 3066 3066 3065 3064 3062 3059 3055 3051 3047 3042 3036 3031 3026 3021 3015 3008 3000
2978 2975 2973 2970 2972 2975 2981 2983 2987 2992 2994 3000 3011 3021 3027 3032 3037 3041 3044 3049 3052 3055 3057 3059 3059 3060 3061 3060 3059 3057 3055 3051 3047 3043 3037 3032 3027 3022 3016 3009 3003 2995 2988
2965 2959 2955 2954 2954 2956 2967 2973 2976 2979 2988 2997 3009 3017 3022 3028 3033 3036 3041 3044 3047 3050 3053 3054 3054 3056 3056 3055 3052 3050 3047 3043 3038 3033 3028 3023 3018 3012 3005 2998 2990 2983 2976
2953 2950 2947 2939 2937 2944 2952 2962 2967 2975 2984 2993 3004 3012 3018 3024 3028 3033 3036 3041 3043 3047 3048 3050 3051 3051 3050 3048 3046 3043 3039 3035 3029 3024 3019 3014 3007 3000 2993 2986 2979 2972 2964
2952 2949 2945 2939 2939 2944 2950 2958 2965 2973 2983 2990 3000 3008 3015 3021 3025 3029 3033 3036 3039 3041 3043 3045 3045 3045 3044 3042 3038 3035 3031 3026 3020 3015 3010 3004 2997 2989 2982 2975 2966 2958 2950
2952 2948 2947 2945 2943 2948 2954 2960 2966 2973 2981 2989 2998 3006 3011 3017 3022 3026 3030 3033 3035 3037 3039 3040 3040 3039 3037 3034 3030 3026 3022 3016 3011 3007 3001 2994 2988 2980 2972 2963 2955 2948 2939
2952 2950 2948 2949 2950 2953 2956 2962 2966 2974 2982 2990 2998 3004 3009 3015 3019 3024 3027 3027 3032 3034 3035 3035 3034 3032 3030 3026 3022 3018 3013 3008 3003 2998 2991 2984 2977 2970 2961 2953 2945 2938 2932
2953 2951 2951 2953 2954 2956 2958 2963 2970 2977 2984 2990 2997 3003 3008 3013 3016 3018 3023 3027 3029 3030 3030 3029 3027 3025 3023 3018 3014 3009 3005 3000 2994 2988 2981 2974 2966 2957 2949 2940 2932 2927 2921
2953 2953 2952 2953 2955 2957 2961 2967 2973 2979 2983 2990 2996 3002 3006 3010 3015 3019 3023 3025 3025 3025 3023 3022 3020 3017 3014 3010 3006 3002 2997 2991 2985 2979 2971 2963 2955 2946 2937 2929 2922 2917 2911
2956 2956 2957 2957 2959 2962 2965 2970 2976 2980 2984 2992 2996 2999 3004 3010 3014 3018 3020 3020 3019 3019 3018 3016 3014 3010 3006 3002 2999 2994 2988 2982 2976 2969 2962 2955 2945 2936 2928 2920 2913 2906 2902
2961 2961 2962 2962 2965 2966 2969 2972 2976 2981 2986 2992 2997 3000 3006 3010 3013 3014 3015 3015 3015 3014 3013 3010 3007 3004 3001 2996 2991 2985 2979 2972 2965 2959 2951 2942 2934 2926 2919 2911 2905 2899 2894
2963 2959 2965 2964 2965 2970 2971 2975 2979 2985 2987 2992 2997 3003 3007 3009 3010 3011 3012 3012 3011 3010 3007 3004 3001 2997 2992 2987 2982 2976 2970 2963 2955 2948 2940 2932 2925 2917 2910 2904 2898 2893 2888
2970 2970 2972 2973 2976 2978 2982 2986 2989 2991 2995 2999 3003 3005 3006 3007 3009 3009 3009 3008 3006 3004 3001 2998 2995 2990 2985 2979 2974 2969 2962 2954 2946 2939 2931 2923 2916 2909 2903 2898 2892 2887 2882
2974 2975 2977 2979 2981 2983 2986 2990 2993 2996 2998 3000 3002 3004 3005 3006 3006 3006 3005 3003 3001 2998 2995 2992 2988 2983 2978 2972 2967 2961 2954 2946 2938 2931 2924 2916 2909 2902 2897 2892 2888 2882 2876
2978 2980 2981 2983 2985 2987 2990 2993 2995 2997 2999 3001 3002 3003 3003 3003 3003 3002 3001 2999 2996 2993 2989 2985 2981 2977 2972 2966 2958 2951 2943 2935 2927 2920 2913 2908 2901 2897 2893 2888 2882 2877 2872
2981 2984 2984 2985 2987 2990 2992 2995 2997 2999 2999 3000 3000 3001 3001 3001 3000 2998 2996 2994 2991 2987 2983 2979 2975 2969 2962 2956 2948 2942 2935 2927 2919 2913 2906 2900 2896 2891 2887 2883 2879 2873 2867
Wind_Speed
31 33 36 42 51 51 47 50 50 48 42 41 39 37 33 37 34 31 28 28 22 23 23 25 25 23 22 20 22 21 24 19 17 17 19 20 23 24 26 26 28 28 28
31 33 34 35 43 53 57 52 53 53 50 45 42 39 36 37 32 30 27 28 27 23 23 26 26 24 23 26 31 27 18 18 18 19 21 24 25 25 28 28 29 30 31
35 36 36 38 37 43 55 60 59 53 55 49 46 45 42 41 35 31 27 27 27 25 26 26 25 27 24 23 23 25 18 19 20 22 24 27 28 30 31 31 32 33 34
26 32 37 38 39 40 40 51 61 58 55 55 52 49 46 42 36 33 30 28 27 27 27 27 28 28 28 24 27 24 17 22 23 23 25 28 31 33 34 34 35 36 36
22 26 28 36 40 36 38 41 46 54 55 59 58 55 50 46 39 35 32 30 28 28 29 29 29 29 27 28 24 18 18 20 21 24 27 30 33 36 38 38 35 36 37
20 22 24 28 34 43 43 42 41 44 47 54 62 59 55 48 43 38 35 32 31 31 31 32 30 28 31 29 27 21 20 22 24 27 30 33 36 39 41 43 40 40 36
23 23 25 27 26 33 42 48 45 42 42 50 56 60 57 50 44 40 36 33 31 30 30 30 31 30 28 25 23 22 21 24 26 29 33 36 39 41 42 43 43 44 41
23 27 30 34 34 30 31 36 47 43 44 48 50 52 55 51 47 43 38 34 32 30 27 29 29 29 29 24 24 23 23 26 29 32 36 38 40 42 42 42 45 46 45
23 24 24 21 28 35 32 30 36 51 47 47 46 48 47 42 45 43 38 35 31 27 29 29 27 24 29 24 24 24 25 28 32 35 38 40 42 41 42 42 44 48 52
22 24 28 30 28 28 30 29 26 30 39 48 46 45 41 35 36 37 35 32 30 26 24 26 28 24 29 26 24 25 28 32 35 38 40 42 42 42 42 43 44 46 50
38 42 41 39 39 38 36 36 34 27 33 43 46 39 33 36 37 35 32 30 27 26 24 23 30 27 24 24 25 27 31 35 38 40 41 42 42 42 43 44 45 47 50
49 47 47 50 51 56 46 37 34 33 37 39 38 31 32 35 34 32 31 28 24 25 23 26 22 23 24 24 27 30 33 37 40 41 42 41 42 42 44 46 48 50 52
37 34 27 27 36 41 41 38 36 40 39 33 33 32 31 31 31 30 29 29 31 25 24 24 23 24 24 26 29 32 36 39 41 41 41 41 42 43 45 47 50 52 53
25 22 20 31 20 22 35 42 38 33 32 32 35 34 30 30 29 27 24 27 25 25 24 23 22 25 26 28 31 35 38 39 40 40 41 42 43 45 48 50 52 53 54
21 18 16 6 17 30 38 35 34 26 29 34 35 32 28 28 26 22 28 25 25 21 21 23 24 25 27 31 34 37 38 38 38 39 41 42 44 47 50 52 54 55 54
15 12 5 10 19 31 26 33 25 23 28 33 31 29 28 26 26 22 21 22 27 22 21 21 24 26 29 34 35 36 36 37 38 39 40 43 45 47 50 52 52 50 48
7 6 4 8 16 20 22 23 23 26 30 29 28 28 27 24 20 23 26 18 19 20 20 22 25 29 33 33 33 34 36 37 38 40 42 44 46 48 51 52 50 46 43
5 3 4 7 12 14 20 22 27 28 29 27 25 26 21 21 27 21 16 18 18 19 21 24 30 30 29 31 33 34 36 37 39 41 43 46 49 50 51 51 48 45 41
5 5 10 13 14 20 23 26 27 28 31 29 24 21 28 22 16 15 16 17 17 20 25 27 26 28 29 30 33 35 36 38 40 42 44 47 49 49 49 48 46 43 36
3 6 13 18 22 25 29 30 24 29 25 18 28 27 18 15 14 14 14 17 21 23 22 24 25 27 30 32 33 34 37 40 42 43 45 45 46 46 44 44 43 38 31
10 14 17 19 21 23 27 29 29 28 25 25 18 11 11 12 12 14 16 18 18 19 21 23 25 28 30 31 33 35 39 42 44 46 47 45 44 43 41 39 34 32 31
15 12 16 13 15 17 20 16 17 13 10 10 11 12 11 10 11 14 15 15 17 19 21 24 26 29 30 32 35 38 41 44 48 48 46 44 43 41 37 32 30 30 30
10 15 14 15 13 14 16 12 13 12 9 7 7 6 6 9 12 12 14 16 18 20 23 25 26 28 31 34 37 40 43 46 47 46 44 42 40 37 31 27 28 29 30
6 10 12 12 13 14 14 13 9 6 3 3 3 5 9 10 11 12 14 16 19 21 24 25 27 30 34 37 40 42 44 46 45 43 40 39 37 31 27 26 26 28 30
4 3 5 7 7 8 8 7 5 3 3 5 8 7 8 9 11 14 15 17 21 23 25 27 30 33 36 39 42 45 47 47 46 44 41 38 32 25 23 23 25 27 29
9 5 7 9 6 4 3 4 5 7 7 6 6 7 9 11 13 15 17 20 22 25 27 30 33 36 39 42 45 46 44 43 43 41 39 33 27 24 24 24 23 25 28
Wind_Direction
259 253 244 237 232 232 235 239 237 241 241 244 246 252 249 253 257 261 265 270 267 266 278 279 281 277 272 284 294 274 268 272 281 292 301 308 314 318 314 312 308 306 303
252 251 251 244 237 234 231 232 239 242 240 238 245 249 247 251 255 261 269 270 269 273 273 272 277 266 274 280 286 266 265 273 287 299 305 311 312 317 316 313 308 306 306
258 251 246 247 242 236 233 233 239 239 244 240 240 243 245 248 252 260 270 273 269 265 272 272 267 264 270 277 286 268 244 281 293 302 307 311 314 317 318 313 309 306 305
251 245 243 244 246 245 236 236 236 237 239 245 241 243 248 253 256 259 270 269 261 261 269 269 263 264 268 270 280 278 266 265 276 287 300 309 312 314 313 312 308 306 305
273 256 253 244 236 236 247 238 237 238 236 242 244 242 244 248 252 257 266 268 257 258 263 263 259 263 259 264 270 263 263 276 289 298 305 310 311 312 312 309 305 305 307
256 263 264 253 244 234 229 234 241 239 234 236 242 242 244 245 250 256 263 269 258 257 259 258 257 260 263 273 278 269 269 282 293 301 307 309 311 312 311 310 309 307 306
257 267 265 260 255 253 236 228 231 234 237 237 240 241 242 245 247 254 260 259 256 258 257 253 252 255 261 267 268 261 273 284 296 303 308 309 310 312 310 308 308 308 308
260 265 259 257 264 259 246 233 228 227 232 234 237 241 241 242 244 251 257 252 251 252 247 245 247 257 252 265 260 264 279 290 300 306 308 310 312 311 308 308 308 308 307
289 279 270 274 275 263 252 243 231 232 233 237 235 236 238 240 245 249 249 246 248 250 238 242 247 254 267 261 261 273 285 296 302 305 308 310 310 308 308 309 309 308 309
252 260 275 278 272 268 260 250 241 233 237 237 234 234 234 230 237 240 239 240 247 236 230 249 242 253 260 261 266 280 292 298 304 307 309 310 309 309 309 309 308 309 310
275 270 270 264 262 261 258 253 259 230 230 230 229 230 231 226 232 231 232 237 227 239 232 246 253 258 254 260 274 286 295 301 305 307 309 309 308 309 309 308 309 311 311
286 278 271 267 261 255 256 254 247 241 225 230 225 222 219 222 223 223 228 223 240 238 244 238 250 257 258 271 283 291 299 303 306 307 308 308 309 309 309 311 312 312 313
287 287 279 268 262 253 241 227 231 240 222 220 214 213 215 215 216 220 216 230 222 234 241 242 256 257 268 279 289 297 301 305 306 306 307 308 308 309 311 312 314 314 313
316 311 289 296 246 225 199 208 220 228 221 205 204 209 213 213 215 221 227 218 226 238 241 253 257 264 276 286 294 300 304 304 304 307 309 309 310 312 314 314 313 312 313
326 310 328 140 184 181 191 211 212 212 208 198 200 207 208 211 214 215 209 227 219 236 247 255 259 273 285 292 298 301 301 303 307 309 309 311 313 315 315 314 315 316 315
327 317 346 190 170 184 206 207 199 195 192 191 196 204 207 205 210 216 201 230 228 238 244 259 272 283 291 296 298 300 303 307 309 310 311 314 316 315 314 315 315 315 315
329 308 255 208 200 198 199 192 181 182 182 186 194 202 199 206 198 205 218 227 238 245 260 272 283 291 293 296 299 303 307 309 310 312 316 316 315 316 315 315 315 315 315
295 267 215 188 181 181 172 172 170 172 177 183 188 197 194 195 202 204 227 231 245 259 274 285 289 290 296 300 304 308 310 310 314 317 316 317 318 318 317 316 316 316 316
315 216 185 188 180 162 160 161 163 174 169 181 186 185 193 188 203 216 231 245 261 277 285 286 291 296 301 305 308 310 311 315 316 317 319 320 318 318 318 315 314 315 316
165 158 155 155 157 157 157 161 172 176 165 188 186 180 171 193 215 229 246 264 278 282 286 293 296 303 308 309 310 313 315 317 319 320 320 319 318 317 316 315 315 316 317
133 142 148 156 157 165 168 170 168 164 172 170 164 161 188 206 226 252 270 279 282 291 292 299 304 306 308 310 313 316 318 319 319 320 322 322 321 319 318 316 316 316 318
71 127 156 156 151 126 129 130 134 148 142 159 168 187 213 242 268 277 279 288 290 295 302 305 308 311 313 315 319 320 321 321 322 324 324 322 320 320 319 317 316 317 318
95 96 100 107 116 122 121 125 130 141 156 176 204 230 257 259 272 283 288 291 298 303 305 310 312 314 317 319 321 321 322 323 323 323 323 322 321 319 317 317 316 318 319
126 124 131 141 146 147 147 147 151 151 165 212 238 254 268 278 282 289 296 300 303 309 313 313 316 321 321 321 322 323 323 323 323 322 322 321 321 320 319 319 319 320 322
205 185 136 134 148 152 159 156 149 168 216 248 264 271 278 289 295 298 303 309 313 315 317 320 322 322 321 321 322 325 326 325 324 325 324 322 321 320 320 321 323 323 323
200 202 179 162 169 200 214 212 229 238 253 276 285 290 294 297 302 309 315 318 318 320 323 324 323 323 322 323 326 327 326 326 325 325 323 323 322 323 325 327 330 327 325